RTU MIREA 1 (RS51S)

Last updated on Mon Sep 15 2025 00:03:10 GMT+0000 (Coordinated Universal Time)

1 61785U 24199BC 25257.25761628 .00016624 00000+0 45486-3 0 9998 2 61785 97.3376 125.5382 0012711 197.7391 162.3412 15.37343497 91778
UTC large
Height (km)
Speed (km/s)
/
Latitude / Longitude
Inclination (degrees)
Orbital Period (minutes)
Azimuth
Elevation
Range (km)
Doppler Factor

Next 0 passes for location: London (51.5072 / 0.1276)

Sorry there are no passes over London.